星链-5649 (STARLINK-5649 )

导读

STARLINK-5649是美国太空探索技术公司星链计划的卫星,于2023年1月26日发射入轨,隶属于美国部署的大规模低轨卫星互联网星座。它依托星链系统,可为全球偏远地区、海空移动载体提供高速互联网服务,补充全球网络覆盖,同时该卫星也在星链星座中承担着增强通信容量与服务稳定性的任务。

Basic Information
目录编号:
55354
目录名称:
STARLINK-5649
国际标识:
2023-013Z
轨道中心:
EARTH
卫星名称:
星链-5649
卫星全名:
星链-5649 (STARLINK-5649 )
卫星状态:
在轨 (已飞行1236 天)
发射日期:
2023-01-26 UTC
国别 :
美国 (US)
星等 :
--
Orbit Information
数据来源 国际轨道数据 AOE轨道数据
星历时间 2026-06-14T21:47:08+0800
14小时前
查看轨道信息
2026-06-10T07:00:00+0800
5天前
查看轨道信息
半长轴 6861.122km 6861.181km
偏心率 0.000126 0.0001527
轨道倾角 43.008° 43.001°
近地点辐角 287.208° 272.868°
升交点赤经 115.999° 142.075°
平近点角 72.863° 232.258°
近地点 482.12km 481.996km
远地点 483.85km 484.092km
周期 94.265分钟 94.267分钟
每日圈数 15.276017 15.275819
Detailed Information
固有亮度:
5
最大亮度:
2.5
卫星平台:
Starlink v1.5
覆盖范围:
全球
运营商:
太空探索技术公司
运营商所在国:
美国
制造商(研发单位):
太空探索技术公司
制造商所在国:
美国
使用方式:
暂无
Satellite Introduction
星链(Starlink)计划是由太空探索技术公司(SpaceX)提出的一个巨型低轨卫星互联网星座项目,计划在2019年至2024年间在太空搭建由约1.2万颗卫星组成的“星链”网络,其中1584颗将部署在地球上空550千米处的近地轨道,并从2020年开始工作。该卫星仍在工作。
2D Orbit Map
3D Orbit Map
Orbit Altitude Analysis Chart
Orbit Inclination Analysis Chart
Orbit Comprehensive Analysis Chart
View Comprehensive Chart